#timestamp,LO_Frequency,Hit,StdDev 
1634227215.3,286046999.9,N
1634227235.1,286047000.9,N
1634227236.0,286047000.9,N
1634227255.8,286047000.2,N
1634227275.7,286047000.2,N
1634227295.5,286046999.8,N
1634227315.3,286047003.9,Y
1634227335.2,286047002.1,P
1634227355.0,286047000.1,N
1634227355.9,286047000.1,N
1634227375.8,286046999.8,N
1634227395.6,286047000.9,N
1634227415.4,286047002.4,N
1634227435.3,286047000.1,N
1634227455.1,286047001.6,N
1634227475.9,286047001.3,N
1634227495.7,286047002.7,Y
1634227515.5,286047000.3,P
1634227535.4,286047002.3,P
1634227555.2,286047002.8,P
1634227575.1,286047002.8,N
1634227576.0,286047002.8,N
1634227595.8,286047002.1,N
1634227615.6,286047000.0,N
1634227635.5,286047000.1,N
1634227655.3,286047000.8,N
1634227675.2,286047000.6,N
1634227695.0,286046998.2,N
1634227695.9,286046998.2,N
1634227715.7,286047001.2,N
1634227735.6,286047000.8,N
1634227755.4,286047000.6,N
1634227775.3,286047001.1,N
1634227795.1,286046998.8,N
1634227815.8,286046998.3,N
1634227835.7,286047000.7,N
1634227855.5,286046998.8,N
1634227875.4,286046999.4,N
1634227895.2,286046996.6,N
1634227915.0,286046999.2,N
1634227915.9,286046999.2,N
1634227935.8,286046999.0,N
1634227955.6,286046998.3,N
1634227975.5,286047001.0,N
1634227995.3,286046998.5,N
1634228015.1,286046998.6,N
1634228035.9,286046998.7,N
1634228055.7,286047001.2,N
1634228075.5,286046998.4,N
1634228095.4,286046999.1,N
1634228115.2,286046999.6,N
1634228135.1,286046999.6,N
1634228136.0,286046999.6,N
1634228155.8,286046999.4,N
1634228175.7,286046998.9,N
1634228195.5,286046999.5,N
1634228215.3,286046998.4,N
1634228235.2,286046998.9,N
1634228255.0,286046996.8,Y
1634228255.9,286046996.8,P
1634228275.8,286046997.8,N
1634228295.6,286046995.2,P
1634228315.4,286046997.4,N
1634228335.3,286046996.8,N
1634228355.1,286046997.5,N
1634228375.9,286046996.8,N
1634228395.7,286046999.4,N
1634228415.5,286046998.2,N
1634228435.4,286046998.2,N
1634228455.2,286047000.3,N
1634228475.0,286047000.5,N
1634228475.9,286047000.5,N
1634228495.8,286047000.6,N
1634228515.6,286046999.0,N
1634228535.5,286046996.8,N
1634228555.3,286046996.8,N
1634228575.1,286046998.0,N
1634228595.9,286046995.4,Y
1634228615.7,286046998.3,P
1634228635.5,286047001.2,P
1634228655.4,286047000.3,N
1634228675.2,286047001.0,N
1634228695.1,286047000.5,N
1634228696.0,286047000.5,N
1634228715.8,286046999.8,N
1634228735.6,286046999.8,N
1634228755.5,286047000.9,N
1634228775.3,286047001.0,N
1634228795.2,286047000.5,N
1634228815.9,286047000.1,N
1634228835.7,286046999.4,N
1634228855.6,286046999.1,N
1634228875.4,286046998.8,N
1634228895.2,286047000.8,N
1634228915.1,286047000.9,N
1634228916.0,286047000.9,N
1634228935.8,286047001.1,N
1634228955.7,286046998.2,N
1634228975.5,286047001.0,N
1634228995.3,286046998.4,N
1634229015.2,286046998.8,N
1634229035.0,286047000.4,N
1634229035.9,286047000.4,N
1634229055.8,286047000.3,N
1634229075.6,286047000.1,N
1634229095.4,286047000.5,N
1634229115.3,286047000.4,N
1634229135.1,286047000.4,N
1634229155.9,286047000.3,N
1634229175.7,286047000.6,N
1634229195.5,286047000.0,N
1634229215.4,286046998.2,N
1634229235.2,286046998.4,N
1634229255.0,286046998.3,N
1634229255.9,286046998.3,N
1634229275.8,286046998.1,N
1634229295.6,286047001.2,N
1634229315.5,286047000.9,N
1634229335.3,286047000.5,N
1634229355.1,286047002.7,N
1634229375.9,286047002.7,N
1634229395.7,286047000.0,N
1634229415.6,286047002.4,N
1634229435.4,286047002.3,N
1634229455.2,286046999.8,N
1634229475.1,286047004.0,N
1634229476.0,286047004.0,N
1634229495.8,286047003.2,N
1634229515.7,286047003.7,N
1634229535.5,286047001.6,N
1634229555.3,286047002.8,N
1634229575.2,286047002.8,N
1634229595.0,286047000.2,N
1634229595.9,286047000.2,N
1634229615.7,286047000.2,N
1634229635.6,286047002.8,N
1634229655.4,286047002.8,N
1634229675.3,286047002.1,N
1634229695.1,286047002.4,N
1634229715.8,286047000.2,N
1634229735.7,286046999.8,N
1634229755.5,286047000.0,N
1634229775.4,286047000.9,N
1634229795.2,286046998.1,N
1634229815.0,286046998.8,N
1634229815.9,286046998.8,N
1634229835.8,286046998.1,N
1634229855.6,286047001.0,N
1634229875.4,286047001.1,N
1634229895.3,286046999.1,N
1634229915.1,286046999.1,N
1634229935.9,286046996.6,N
1634229955.7,286046999.3,N
1634229975.5,286046999.5,N
1634229995.4,286046998.2,N
1634230015.2,286046998.6,N
1634230035.0,286047000.9,N
1634230035.9,286047000.9,N
1634230055.8,286047000.7,N
1634230075.6,286046998.8,N
1634230095.5,286047000.4,N
1634230115.3,286047000.5,N
1634230135.1,286047000.0,N
1634230155.9,286047002.3,N
1634230175.7,286047002.8,N
1634230195.5,286047000.8,N
1634230215.4,286047000.3,N
1634230235.2,286046998.5,N
1634230255.1,286046996.5,N
1634230256.0,286046996.5,N
1634230275.8,286046997.7,N
1634230295.6,286046997.1,N
1634230315.5,286046999.0,N
1634230335.3,286046996.5,N
1634230355.2,286046999.4,N
1634230375.9,286046999.4,N
1634230395.7,286046999.3,N
1634230415.6,286047000.9,N
1634230435.4,286046999.9,N
1634230455.2,286047000.8,N
1634230475.1,286046998.6,N
1634230476.0,286046998.6,N
1634230495.8,286046998.8,N
1634230515.7,286046998.7,N
1634230535.5,286046999.3,N
1634230555.3,286046998.9,N
1634230575.2,286046997.1,N
1634230595.0,286046995.2,Y
1634230595.9,286046995.2,P
1634230615.7,286046996.5,N
1634230635.6,286046999.1,N
1634230655.4,286046997.3,N
1634230675.3,286046997.9,N
1634230695.1,286046997.9,N
1634230696.0,286046997.9,N
1634230715.8,286046997.2,N
1634230735.7,286046997.6,N
1634230755.5,286046997.5,N
1634230775.3,286046997.4,N
1634230795.2,286046997.1,N
